Theta_e
290 292 294 295 294 295 297 297 299 300 302 303 304 308 312 318 321 326 325 324 324 323 321 319 319 319 316 316 316 314 313 310 311 308 308 308 309 309 309 310 310 310 311
289 291 291 292 293 293 294 295 296 298 299 301 303 306 306 310 314 321 324 325 323 322 321 319 318 318 317 315 315 313 310 311 310 307 304 302 304 305 308 307 308 308 308
287 288 290 289 290 291 292 293 295 296 297 297 300 303 308 311 314 314 318 320 324 323 322 320 319 318 319 317 315 315 312 309 308 308 306 299 299 301 305 304 306 307 305
287 288 288 289 289 290 292 292 293 294 295 296 296 297 300 301 306 306 309 312 321 324 323 322 322 320 319 318 316 317 315 312 309 308 309 308 306 302 302 305 303 302 302
286 286 288 289 289 290 289 291 292 293 293 294 295 295 296 299 302 305 306 310 315 323 324 323 322 321 321 320 319 318 316 315 312 310 307 307 307 307 305 303 306 307 306
285 286 287 289 288 289 289 290 290 291 292 293 294 294 294 296 298 302 304 307 310 314 323 321 323 323 322 321 320 320 318 317 317 314 311 310 308 307 306 305 307 307 308
284 285 285 286 287 287 288 289 289 289 290 290 292 293 294 295 296 299 302 304 307 309 312 320 322 322 322 322 321 320 320 318 317 316 314 313 313 312 310 308 307 306 308
285 285 284 285 286 287 288 289 289 288 290 290 290 293 295 295 296 297 299 301 303 308 310 312 318 322 322 322 322 321 320 320 318 317 317 316 315 314 313 310 307 304 305
284 284 285 284 285 286 287 288 289 289 290 290 291 293 294 295 296 297 299 300 304 308 309 311 312 321 322 321 321 320 319 319 319 319 318 317 316 315 314 313 311 308 303
283 284 284 284 284 285 287 289 289 288 289 290 291 292 293 294 296 298 300 302 305 306 310 310 313 320 320 319 319 318 319 318 315 317 315 312 311 309 309 310 310 310 308
284 283 283 283 283 284 285 288 288 288 288 289 290 291 291 293 294 295 297 299 301 302 305 307 307 308 308 310 311 310 310 306 304 304 304 302 303 302 301 301 301 299 301
284 283 283 282 281 282 283 285 287 288 288 289 290 289 290 291 292 292 294 296 297 298 300 301 301 302 303 303 303 301 302 300 298 298 298 297 298 297 297 297 296 295 295
283 282 281 281 280 281 282 283 283 284 288 288 288 288 288 289 290 291 292 293 294 295 296 297 297 298 299 298 297 297 296 294 294 294 294 294 294 293 293 293 292 292 291
284 281 280 280 279 280 281 282 283 284 286 286 287 287 287 288 288 289 290 291 292 292 293 294 294 295 296 295 295 294 293 292 291 291 291 291 291 291 290 289 288 287 286
279 278 277 280 279 276 279 282 282 283 284 287 284 286 286 287 287 287 288 289 289 290 291 292 292 293 294 294 293 291 290 289 288 289 289 289 288 289 289 286 285 285 283
279 278 277 281 277 274 277 282 279 282 283 283 285 286 286 286 286 286 287 287 287 287 288 289 289 290 291 292 292 290 288 287 286 285 285 286 285 288 289 289 288 286 283
283 281 283 279 278 278 282 280 281 282 282 282 282 285 285 285 285 285 285 285 285 286 286 287 288 287 289 290 289 287 286 284 284 283 283 283 284 283 284 286 286 286 287
285 285 283 282 280 280 277 282 282 281 282 282 283 285 284 283 283 284 283 283 284 284 284 284 285 286 287 288 287 286 284 284 283 282 282 282 282 282 282 281 281 282 284
286 286 284 282 280 280 280 281 281 280 280 280 283 282 281 280 280 280 280 280 281 282 282 283 282 284 285 287 286 284 283 281 281 282 282 282 282 285 285 282 281 281 281
287 284 283 282 280 280 280 281 280 280 279 280 281 281 281 280 279 280 280 280 281 281 281 281 281 281 283 287 286 284 283 281 281 282 283 284 283 285 284 281 280 279 279
285 283 281 280 280 279 280 280 279 278 279 278 279 279 280 280 280 280 279 279 279 279 278 278 278 279 281 284 287 285 282 281 280 280 280 282 285 285 285 283 280 280 280
283 282 280 280 279 279 280 279 278 278 276 276 275 275 275 280 279 276 276 276 276 275 274 274 275 277 278 284 286 286 284 283 279 279 278 280 285 284 284 282 283 282 281
284 282 280 278 274 275 276 276 275 274 273 272 271 272 273 276 277 276 274 274 273 273 273 274 273 274 276 278 285 285 284 283 279 278 282 284 284 282 281 282 281 279 279
282 279 276 276 276 274 275 276 272 273 272 271 271 271 272 272 273 277 277 275 273 272 274 273 272 270 272 273 275 277 279 281 279 281 276 279 279 278 273 271 277 278 278
280 279 280 280 279 275 275 273 272 272 272 271 272 273 274 274 274 275 275 276 275 276 271 270 272 268 267 272 277 275 272 271 275 268 265 263 264 264 264 266 274 276 277
279 279 280 280 281 275 276 273 272 273 273 273 273 274 274 272 273 273 270 281 281 283 284 283 276 273 278 281 282 281 281 281 280 263 261 260 259 262 260 267 272 275 276
Wind_Speed
4 6 7 6 7 9 10 11 10 9 7 5 4 3 2 4 5 2 3 6 6 8 8 5 5 4 5 5 5 3 4 2 2 2 2 3 5 5 5 4 4 5 5
5 5 7 7 7 9 10 10 10 9 8 5 4 3 4 3 3 5 4 6 6 8 8 8 7 7 5 5 5 5 3 2 3 3 2 3 4 3 4 3 4 6 4
3 4 5 5 6 7 10 9 8 8 8 9 5 3 3 4 3 6 7 5 5 7 7 7 6 6 5 6 5 6 6 4 3 3 4 1 4 2 2 1 3 5 3
2 2 3 5 5 5 7 9 9 8 7 8 7 8 4 3 3 3 5 8 7 5 5 6 7 7 4 5 5 4 4 4 4 1 4 2 2 2 4 2 3 4 5
2 3 4 4 4 4 6 6 8 7 8 7 4 4 4 5 5 5 6 6 8 7 6 6 5 5 5 6 7 6 6 5 4 4 2 3 3 3 3 4 3 2 3
2 4 3 3 4 5 5 5 7 6 8 7 6 6 5 6 5 6 4 4 4 4 6 6 7 7 7 6 7 8 9 8 6 4 4 4 3 3 4 6 7 3 3
3 4 5 5 5 6 6 5 6 7 6 6 6 5 5 5 4 6 5 6 4 3 5 5 7 5 6 7 8 8 9 8 7 8 7 6 7 3 3 3 3 3 2
4 5 4 4 5 5 5 7 7 5 6 6 5 5 5 3 3 4 4 4 4 4 5 6 5 7 7 8 8 7 7 8 8 11 9 7 7 6 5 3 3 2 3
3 5 5 4 6 5 5 7 8 8 7 8 7 6 6 6 5 6 5 4 5 5 6 6 7 6 6 7 8 6 6 6 7 8 8 7 4 4 4 4 3 3 2
2 3 5 5 4 5 6 5 6 7 8 7 7 6 6 6 6 6 6 6 5 7 5 5 7 4 2 2 4 3 5 6 1 3 3 3 2 3 2 1 1 2 2
3 2 3 4 5 5 6 5 5 6 7 6 6 6 6 6 6 5 6 6 6 6 5 5 6 6 6 5 5 5 6 7 7 7 6 7 6 4 4 4 4 3 2
4 2 1 3 5 5 5 5 6 5 5 6 7 6 6 7 7 6 7 6 6 5 5 5 5 8 5 8 6 8 8 7 8 7 8 8 5 7 6 4 5 5 4
3 2 2 3 3 5 5 6 5 6 5 5 6 6 7 7 7 7 7 7 6 6 6 6 7 6 7 8 7 9 9 9 8 6 7 8 5 7 5 5 5 4 4
6 4 3 3 3 3 4 5 5 5 5 6 6 7 7 7 7 7 8 8 8 8 7 7 7 6 8 7 8 9 9 9 9 8 7 8 7 7 6 5 5 5 5
7 6 4 4 4 4 4 4 4 5 5 4 5 6 6 6 7 7 7 8 9 8 8 8 8 9 7 5 7 9 9 9 9 9 10 9 9 13 9 4 4 4 4
7 7 5 6 6 5 4 4 3 2 3 5 5 5 5 5 6 6 7 8 9 8 9 10 9 9 6 12 12 9 9 8 9 9 7 8 9 14 16 17 14 8 5
8 7 7 7 5 5 4 4 3 1 2 2 3 3 3 4 5 4 6 7 7 7 8 9 8 8 8 15 15 14 8 8 8 7 6 7 6 7 6 13 16 16 16
8 7 6 6 5 4 4 2 1 1 2 2 3 3 4 4 4 4 6 6 5 7 6 7 7 7 8 15 16 16 9 8 9 8 7 6 6 5 5 7 9 8 9
8 7 6 5 5 6 5 4 2 1 1 2 3 4 4 4 4 5 4 3 5 6 6 5 6 6 7 13 13 11 8 8 8 6 6 6 5 8 9 6 7 7 7
6 8 8 5 6 6 6 5 4 2 1 1 3 3 3 4 3 4 3 2 5 5 4 6 5 6 6 10 10 8 5 8 5 5 5 10 7 10 9 4 5 8 5
7 7 7 8 7 6 6 6 5 6 4 3 1 2 3 2 1 2 1 3 5 5 5 5 4 4 3 6 9 9 4 5 5 4 3 3 11 11 11 8 3 5 5
5 6 7 7 7 7 6 6 7 5 5 5 3 2 3 2 2 3 2 4 4 5 4 4 4 3 4 5 8 9 8 8 6 4 1 2 10 11 11 7 13 12 8
8 6 7 6 5 6 6 6 6 6 5 5 5 4 3 4 4 4 3 3 3 3 2 2 2 1 2 3 8 10 12 12 5 3 8 10 10 12 10 12 11 8 5
9 6 7 8 9 8 8 7 5 7 7 6 5 4 5 4 3 2 3 3 3 3 3 3 3 2 0 1 1 1 4 9 4 8 4 8 9 10 7 4 6 5 4
7 9 11 11 13 8 11 8 7 8 6 6 5 5 4 6 5 4 4 4 3 4 4 4 4 4 2 4 6 6 3 3 6 6 4 3 2 2 2 3 3 3 4
6 7 11 11 12 10 11 9 9 11 9 7 6 6 6 4 3 4 1 5 6 9 8 8 7 4 5 7 8 8 8 11 14 4 3 2 2 3 3 3 4 4 4
Wind_Direction
18 10 2 12 0 0 6 10 6 2 36 1 4 316 325 348 337 351 304 176 174 175 174 175 171 167 175 162 164 140 163 156 142 98 334 290 250 255 248 236 238 252 250
26 11 2 5 6 354 0 3 2 2 13 28 333 324 335 315 305 323 290 265 179 183 180 181 185 177 168 166 169 150 139 168 173 141 83 317 322 288 254 240 237 245 248
44 7 9 9 1 358 349 353 359 2 14 11 352 333 313 298 334 3 346 329 216 207 194 191 182 177 177 184 188 191 167 172 193 187 142 161 237 307 309 298 260 248 248
37 9 18 26 0 350 352 340 348 0 6 3 3 355 357 332 5 309 301 308 289 208 201 200 194 183 178 177 183 187 176 137 178 220 230 209 141 228 324 316 280 255 255
69 35 29 17 357 358 353 334 337 346 354 354 1 346 346 321 317 304 311 316 331 248 197 196 182 174 178 186 185 183 190 191 170 171 162 202 214 211 211 284 289 296 250
35 39 39 12 339 352 345 332 347 332 358 337 341 347 329 324 329 311 299 322 314 312 224 197 203 206 192 199 205 206 204 201 209 182 189 171 177 198 195 230 262 267 284
3 20 17 355 344 347 339 336 356 338 342 334 337 324 309 305 310 318 330 338 312 341 340 280 201 206 209 212 215 214 214 205 209 211 214 211 218 192 182 178 227 241 290
343 353 12 359 345 348 339 347 354 339 336 330 328 310 318 302 291 288 303 300 303 293 309 286 295 215 219 214 213 218 213 213 218 221 217 210 220 210 201 172 169 232 232
316 334 351 21 356 341 352 351 347 348 343 337 331 324 331 327 313 303 283 280 292 299 280 299 273 248 220 220 217 217 198 200 210 214 215 216 203 200 205 193 178 184 242
244 324 339 356 7 342 326 347 346 340 335 337 329 330 335 325 316 310 328 324 326 320 303 255 257 244 224 225 210 213 213 214 208 218 170 99 78 86 74 201 185 179 202
203 266 327 340 346 354 339 327 341 339 338 330 335 339 342 338 335 336 335 335 332 336 348 20 53 58 59 36 66 61 73 85 65 45 72 75 58 66 58 56 62 57 24
178 231 316 340 340 340 334 330 329 340 341 337 343 353 359 360 360 358 355 353 6 8 14 36 57 78 62 68 65 80 71 78 80 76 76 52 65 63 53 53 57 65 45
209 257 288 302 324 322 324 327 333 330 343 359 2 8 9 12 13 11 9 19 29 31 30 47 56 62 75 79 77 85 84 83 73 72 85 92 76 75 71 67 73 53 56
260 247 263 256 278 294 304 317 326 337 343 5 18 18 13 17 22 20 21 27 33 40 37 40 54 55 68 82 91 88 86 88 80 75 68 70 77 85 89 87 80 80 79
248 243 221 247 261 283 305 308 325 344 352 25 24 24 13 24 35 33 30 35 39 40 37 48 45 49 55 64 82 84 84 90 86 70 69 68 72 72 65 81 65 81 82
246 246 227 233 233 224 250 283 284 322 31 24 31 25 20 20 30 35 38 47 43 43 45 47 50 56 60 62 75 89 92 86 86 85 71 66 63 74 77 76 77 72 75
237 222 231 225 218 201 204 236 260 283 97 71 32 45 39 42 39 36 56 52 54 55 49 54 61 65 70 80 81 79 79 86 92 92 84 75 64 71 88 88 74 70 74
221 215 210 217 213 187 187 206 187 128 102 70 46 35 60 53 35 40 62 56 54 59 62 50 37 70 75 87 86 83 80 78 74 67 69 85 94 106 106 88 78 79 79
201 198 188 180 188 189 179 176 150 113 105 80 45 39 65 79 70 65 61 62 62 62 60 49 47 60 76 88 94 92 88 80 68 70 68 68 80 109 119 100 103 86 69
171 172 170 159 179 200 166 164 182 174 176 100 72 53 77 96 106 106 101 77 77 77 75 71 47 33 76 104 110 102 105 97 89 66 78 96 102 99 114 121 125 106 92
178 155 166 177 195 178 166 185 176 206 179 150 119 88 87 105 140 120 81 98 89 87 65 72 42 50 67 115 134 140 120 128 124 99 69 74 99 100 103 117 117 109 95
177 185 172 198 190 183 173 191 206 191 164 148 141 129 127 127 108 91 48 70 85 86 65 58 42 14 15 94 134 134 127 126 109 118 88 90 107 104 94 88 97 104 101
191 186 201 197 208 194 186 194 216 162 165 157 177 182 166 141 150 132 121 96 86 91 100 99 97 29 354 14 114 128 128 123 109 143 120 115 107 86 75 96 106 100 99
207 181 173 214 218 199 203 210 174 165 162 181 191 187 171 163 161 155 161 145 158 150 162 167 174 191 89 34 349 35 125 130 119 119 104 114 100 92 88 63 84 97 106
193 179 197 209 226 195 206 193 182 162 185 189 183 198 197 185 174 186 178 178 202 174 177 198 174 160 213 227 197 179 167 153 142 97 53 40 62 67 48 56 84 106 118
186 199 208 209 220 195 213 194 178 180 179 193 201 194 186 192 187 171 210 224 201 203 217 207 182 213 223 200 194 197 183 171 153 68 141 192 173 143 151 135 140 137 140